| time (UTC) | temp F | wind direction | speed knots | gust knots | rain 1hr in | rain 24hr in | rain mn in | humidity % | barometer mb |
| 20260504033504 | 51 | 317 | 0.9 | 2.6 | 0.00 | 0.00 | 0.00 | 46 | 1019.1 |
| 20260504033002 | 51 | 131 | 0.0 | 3.5 | 0.00 | 0.00 | 0.00 | 46 | 1019.0 |
| 20260504032503 | 51 | 261 | 0.9 | 3.5 | 0.00 | 0.00 | 0.00 | 46 | 1019.1 |
| 20260504032003 | 51 | 224 | 0.0 | 1.7 | 0.00 | 0.00 | 0.00 | 45 | 1018.9 |
| 20260504031509 | 51 | 61 | 0.0 | 1.7 | 0.00 | 0.00 | 0.00 | 46 | 1019.0 |
| 20260504031001 | 51 | 233 | 0.0 | 1.7 | 0.00 | 0.00 | 0.00 | 46 | 1019.0 |
| 20260504030502 | 51 | 1 | 0.0 | 1.7 | 0.00 | 0.00 | 0.00 | 45 | 1019.0 |
| 20260504030002 | 51 | 216 | 0.0 | 1.7 | 0.00 | 0.00 | 0.00 | 45 | 1019.1 |
| 20260504025502 | 51 | 287 | 0.9 | 1.7 | 0.00 | 0.00 | 0.00 | 46 | 1019.0 |
| 20260504025101 | 51 | 261 | 0.0 | 1.7 | 0.00 | 0.00 | 0.00 | 46 | 1019.1 |
| 20260504024600 | 51 | 86 | 0.0 | 1.7 | 0.00 | 0.00 | 0.00 | 46 | 1018.9 |
| 20260504024502 | 51 | 44 | 0.0 | 1.7 | 0.00 | 0.00 | 0.00 | 45 | 1018.9 |
| 20260504024100 | 51 | 216 | 0.0 | 1.7 | 0.00 | 0.00 | 0.00 | 46 | 1019.0 |
| 20260504023600 | 51 | 44 | 0.0 | 1.7 | 0.00 | 0.00 | 0.00 | 46 | 1018.9 |
| 20260504023100 | 51 | 304 | 0.0 | 1.7 | 0.00 | 0.00 | 0.00 | 46 | 1018.9 |
| 20260504022604 | 51 | 261 | 0.0 | 1.7 | 0.00 | 0.00 | 0.00 | 45 | 1018.9 |
| 20260504022102 | 51 | 304 | 0.0 | 1.7 | 0.00 | 0.00 | 0.00 | 45 | 1019.0 |
| 20260504021701 | 51 | 1 | 0.0 | 1.7 | 0.00 | 0.00 | 0.00 | 45 | 1018.8 |
| 20260504021059 | 50 | 304 | 0.0 | 1.7 | 0.00 | 0.00 | 0.00 | 47 | 1018.8 |
| 20260504020559 | 50 | 304 | 0.0 | 1.7 | 0.00 | 0.00 | 0.00 | 47 | 1018.8 |
| 20260504020106 | 50 | 44 | 0.0 | 1.7 | 0.00 | 0.00 | 0.00 | 47 | 1018.8 |
| 20260504015558 | 50 | 1 | 0.0 | 1.7 | 0.00 | 0.00 | 0.00 | 47 | 1018.8 |
| 20260504015059 | 50 | 44 | 0.0 | 1.7 | 0.00 | 0.00 | 0.00 | 48 | 1018.6 |
| 20260504014606 | 50 | 238 | 0.0 | 1.7 | 0.00 | 0.00 | 0.00 | 48 | 1018.6 |
| 20260504014057 | 50 | 44 | 0.0 | 1.7 | 0.00 | 0.00 | 0.00 | 48 | 1018.6 |
| 20260504013557 | 50 | 44 | 0.0 | 1.7 | 0.00 | 0.00 | 0.00 | 48 | 1018.6 |
| 20260504013058 | 50 | 147 | 0.0 | 1.7 | 0.00 | 0.00 | 0.00 | 46 | 1018.5 |
| 20260504012557 | 50 | 243 | 0.0 | 1.7 | 0.00 | 0.00 | 0.00 | 47 | 1018.6 |
| 20260504012057 | 50 | 172 | 0.0 | 1.7 | 0.00 | 0.00 | 0.00 | 48 | 1018.5 |
| 20260504011557 | 50 | 70 | 0.0 | 2.6 | 0.00 | 0.00 | 0.00 | 47 | 1018.4 |
| 20260504011058 | 51 | 1 | 0.0 | 2.6 | 0.00 | 0.00 | 0.00 | 46 | 1018.4 |
| 20260504010556 | 51 | 304 | 0.0 | 1.7 | 0.00 | 0.00 | 0.00 | 46 | 1018.4 |
| 20260504010101 | 51 | 1 | 0.0 | 1.7 | 0.00 | 0.00 | 0.00 | 45 | 1018.4 |
| 20260504005556 | 51 | 15 | 0.0 | 1.7 | 0.00 | 0.00 | 0.00 | 45 | 1018.4 |
| 20260504005056 | 51 | 27 | 0.0 | 2.6 | 0.00 | 0.00 | 0.00 | 45 | 1018.3 |
| 20260504004556 | 51 | 61 | 0.0 | 2.6 | 0.00 | 0.00 | 0.00 | 45 | 1018.4 |
| 20260504004056 | 52 | 1 | 0.0 | 2.6 | 0.00 | 0.00 | 0.00 | 45 | 1018.3 |
| 20260504003555 | 52 | 27 | 0.0 | 1.7 | 0.00 | 0.00 | 0.00 | 45 | 1018.3 |
| 20260504003101 | 52 | 131 | 0.0 | 1.7 | 0.00 | 0.00 | 0.00 | 45 | 1018.1 |
| 20260504002555 | 53 | 1 | 0.0 | 2.6 | 0.00 | 0.00 | 0.00 | 45 | 1018.2 |
| 20260504002055 | 53 | 304 | 0.0 | 2.6 | 0.00 | 0.00 | 0.00 | 43 | 1018.1 |
| 20260504001600 | 53 | 326 | 0.0 | 2.6 | 0.00 | 0.00 | 0.00 | 42 | 1018.0 |
| 20260504001055 | 54 | 1 | 0.0 | 2.6 | 0.00 | 0.00 | 0.00 | 42 | 1018.1 |
| 20260504000555 | 54 | 172 | 0.9 | 2.6 | 0.00 | 0.00 | 0.00 | 41 | 1018.1 |
| 20260504000100 | 55 | 245 | 0.0 | 2.6 | 0.00 | 0.00 | 0.00 | 42 | 1018.2 |
| 20260503235554 | 55 | 295 | 0.9 | 2.6 | 0.00 | 0.00 | 0.00 | 40 | 1018.2 |
| 20260503235054 | 55 | 27 | 0.9 | 5.2 | 0.00 | 0.00 | 0.00 | 39 | 1018.1 |
| 20260503234554 | 56 | 274 | 1.7 | 5.2 | 0.00 | 0.00 | 0.00 | 38 | 1018.1 |
| 20260503234054 | 56 | 245 | 0.9 | 4.3 | 0.00 | 0.00 | 0.00 | 39 | 1018.2 |
| 20260503233555 | 57 | 195 | 0.9 | 6.1 | 0.00 | 0.00 | 0.00 | 37 | 1018.1 |
| 20260503233053 | 58 | 210 | 0.9 | 6.1 | 0.00 | 0.00 | 0.00 | 37 | 1018.2 |
| 20260503232555 | 58 | 122 | 0.0 | 5.2 | 0.00 | 0.00 | 0.00 | 38 | 1018.2 |
| 20260503232054 | 58 | 254 | 1.7 | 4.3 | 0.00 | 0.00 | 0.00 | 35 | 1018.1 |
| 20260503231552 | 59 | 297 | 1.7 | 5.2 | 0.00 | 0.00 | 0.00 | 36 | 1018.1 |
| 20260503231051 | 59 | 237 | 1.7 | 5.2 | 0.00 | 0.00 | 0.00 | 37 | 1018.1 |
| 20260503230552 | 59 | 242 | 0.9 | 5.2 | 0.00 | 0.00 | 0.00 | 37 | 1017.9 |
| 20260503230109 | 59 | 42 | 0.9 | 4.3 | 0.00 | 0.00 | 0.00 | 37 | 1017.9 |
| 20260503225551 | 59 | 207 | 1.7 | 6.1 | 0.00 | 0.00 | 0.00 | 34 | 1017.9 |
| 20260503225051 | 60 | 321 | 2.6 | 6.1 | 0.00 | 0.00 | 0.00 | 33 | 1017.8 |
| 20260503224551 | 60 | 335 | 1.7 | 5.2 | 0.00 | 0.00 | 0.00 | 36 | 1017.9 |
| 20260503224051 | 60 | 314 | 1.7 | 5.2 | 0.00 | 0.00 | 0.00 | 33 | 1017.8 |
| 20260503223550 | 60 | 337 | 1.7 | 5.2 | 0.00 | 0.00 | 0.00 | 34 | 1017.8 |
| 20260503223107 | 60 | 260 | 2.6 | 6.1 | 0.00 | 0.00 | 0.00 | 33 | 1017.9 |
| 20260503222550 | 60 | 333 | 1.7 | 6.1 | 0.00 | 0.00 | 0.00 | 34 | 1017.9 |
| 20260503222050 | 60 | 249 | 1.7 | 6.1 | 0.00 | 0.00 | 0.00 | 36 | 1018.0 |
| 20260503221553 | 60 | 155 | 0.9 | 6.1 | 0.00 | 0.00 | 0.00 | 35 | 1018.1 |
| 20260503221050 | 60 | 86 | 1.7 | 4.3 | 0.00 | 0.00 | 0.00 | 37 | 1018.1 |
| 20260503220549 | 60 | 224 | 1.7 | 9.6 | 0.00 | 0.00 | 0.00 | 34 | 1017.9 |
| 20260503220052 | 60 | 165 | 2.6 | 9.6 | 0.00 | 0.00 | 0.00 | 32 | 1018.1 |
| 20260503215549 | 60 | 115 | 1.7 | 6.1 | 0.00 | 0.00 | 0.00 | 35 | 1018.1 |
| 20260503215049 | 61 | 127 | 1.7 | 6.1 | 0.00 | 0.00 | 0.00 | 36 | 1018.0 |
| 20260503214555 | 60 | 215 | 1.7 | 6.1 | 0.00 | 0.00 | 0.00 | 33 | 1017.9 |
| 20260503214049 | 61 | 155 | 0.9 | 5.2 | 0.00 | 0.00 | 0.00 | 33 | 1017.9 |
| 20260503213550 | 61 | 341 | 1.7 | 6.1 | 0.00 | 0.00 | 0.00 | 35 | 1018.0 |
| 20260503213049 | 61 | 206 | 1.7 | 7.0 | 0.00 | 0.00 | 0.00 | 35 | 1018.1 |
| 20260503212548 | 61 | 245 | 1.7 | 7.0 | 0.00 | 0.00 | 0.00 | 38 | 1018.2 |
| 20260503212047 | 60 | 283 | 0.9 | 7.0 | 0.00 | 0.00 | 0.00 | 38 | 1018.1 |
| 20260503211546 | 60 | 264 | 1.7 | 7.0 | 0.00 | 0.00 | 0.00 | 35 | 1018.2 |
| 20260503211046 | 60 | 321 | 1.7 | 7.0 | 0.00 | 0.00 | 0.00 | 36 | 1018.1 |
| 20260503210545 | 60 | 276 | 4.3 | 7.0 | 0.00 | 0.00 | 0.00 | 33 | 1018.2 |
| 20260503210044 | 60 | 334 | 3.5 | 7.0 | 0.00 | 0.00 | 0.00 | 35 | 1018.2 |
| 20260503205543 | 59 | 289 | 1.7 | 7.8 | 0.00 | 0.00 | 0.00 | 33 | 1018.3 |
| 20260503205043 | 59 | 74 | 3.5 | 7.8 | 0.00 | 0.00 | 0.00 | 34 | 1018.3 |
| 20260503204545 | 58 | 272 | 3.5 | 9.6 | 0.00 | 0.00 | 0.00 | 31 | 1018.3 |
| 20260503204042 | 59 | 293 | 2.6 | 9.6 | 0.00 | 0.00 | 0.00 | 31 | 1018.3 |
| 20260503203543 | 59 | 337 | 2.6 | 9.6 | 0.00 | 0.00 | 0.00 | 34 | 1018.5 |
| 20260503203044 | 59 | 333 | 4.3 | 9.6 | 0.00 | 0.00 | 0.00 | 37 | 1018.5 |
| 20260503202546 | 58 | 272 | 2.6 | 13.0 | 0.00 | 0.00 | 0.00 | 33 | 1018.4 |
| 20260503202042 | 59 | 206 | 6.1 | 13.0 | 0.00 | 0.00 | 0.00 | 29 | 1018.6 |
| 20260503201545 | 59 | 235 | 3.5 | 8.7 | 0.00 | 0.00 | 0.00 | 33 | 1018.6 |
| 20260503201041 | 59 | 191 | 2.6 | 8.7 | 0.00 | 0.00 | 0.00 | 33 | 1018.7 |
| 20260503200540 | 59 | 314 | 4.3 | 8.7 | 0.00 | 0.00 | 0.00 | 35 | 1018.8 |
| 20260503200040 | 59 | 289 | 3.5 | 9.6 | 0.00 | 0.00 | 0.00 | 39 | 1018.9 |
| 20260503195538 | 58 | 238 | 1.7 | 9.6 | 0.00 | 0.00 | 0.00 | 35 | 1018.9 |
| 20260503195038 | 58 | 309 | 1.7 | 10.4 | 0.00 | 0.00 | 0.00 | 39 | 1019.0 |
| 20260503194545 | 58 | 162 | 4.3 | 10.4 | 0.00 | 0.00 | 0.00 | 37 | 1019.1 |
| 20260503194039 | 57 | 244 | 2.6 | 10.4 | 0.00 | 0.00 | 0.00 | 35 | 1019.1 |
| 20260503193536 | 57 | 326 | 5.2 | 8.7 | 0.00 | 0.00 | 0.00 | 34 | 1019.1 |
| 20260503193037 | 58 | 311 | 3.5 | 8.7 | 0.00 | 0.00 | 0.00 | 35 | 1019.3 |
| 20260503192536 | 58 | 184 | 2.6 | 8.7 | 0.00 | 0.00 | 0.00 | 43 | 1019.2 |
| 20260503192035 | 58 | 101 | 0.9 | 9.6 | 0.00 | 0.00 | 0.00 | 39 | 1019.2 |
| 20260503191535 | 57 | 276 | 4.3 | 12.2 | 0.00 | 0.00 | 0.00 | 38 | 1019.2 |
| 20260503191035 | 57 | 286 | 3.5 | 8.7 | 0.00 | 0.00 | 0.00 | 36 | 1019.2 |
| 20260503190535 | 57 | 284 | 3.5 | 8.7 | 0.00 | 0.00 | 0.00 | 39 | 1019.5 |
| 20260503190041 | 57 | 260 | 1.7 | 7.0 | 0.00 | 0.00 | 0.00 | 37 | 1019.4 |
| 20260503185533 | 57 | 316 | 2.6 | 7.0 | 0.00 | 0.00 | 0.00 | 38 | 1019.6 |
| 20260503185034 | 56 | 1 | 1.7 | 8.7 | 0.00 | 0.00 | 0.00 | 37 | 1019.7 |
| 20260503184532 | 57 | 226 | 5.2 | 8.7 | 0.00 | 0.00 | 0.00 | 40 | 1019.8 |
| 20260503184032 | 57 | 323 | 5.2 | 8.7 | 0.00 | 0.00 | 0.00 | 39 | 1019.9 |
| 20260503183530 | 56 | 19 | 2.6 | 7.8 | 0.00 | 0.00 | 0.00 | 43 | 1020.0 |
| 20260503183038 | 56 | 1 | 0.9 | 8.7 | 0.00 | 0.00 | 0.00 | 41 | 1020.0 |
| 20260503182529 | 56 | 309 | 3.5 | 11.3 | 0.00 | 0.00 | 0.00 | 43 | 1020.0 |
| 20260503182030 | 55 | 238 | 3.5 | 11.3 | 0.00 | 0.00 | 0.00 | 41 | 1020.0 |
| 20260503181549 | 55 | 321 | 3.5 | 11.3 | 0.00 | 0.00 | 0.00 | 43 | 1020.1 |
| 20260503181028 | 55 | 260 | 3.5 | 11.3 | 0.00 | 0.00 | 0.00 | 45 | 1020.2 |
| 20260503180530 | 55 | 19 | 0.9 | 7.8 | 0.00 | 0.00 | 0.00 | 41 | 1020.1 |
| 20260503180040 | 55 | 238 | 4.3 | 9.6 | 0.00 | 0.00 | 0.00 | 38 | 1020.3 |
| 20260503175531 | 55 | 268 | 2.6 | 9.6 | 0.00 | 0.00 | 0.00 | 41 | 1020.5 |
| 20260503175027 | 55 | 54 | 0.9 | 7.0 | 0.00 | 0.00 | 0.00 | 48 | 1020.4 |
| 20260503174525 | 53 | 286 | 2.6 | 7.8 | 0.00 | 0.00 | 0.00 | 44 | 1020.3 |
| 20260503174027 | 53 | 304 | 3.5 | 9.6 | 0.00 | 0.00 | 0.00 | 42 | 1020.4 |
| 20260503173524 | 54 | 337 | 2.6 | 11.3 | 0.00 | 0.00 | 0.00 | 45 | 1020.4 |
| 20260503173024 | 54 | 331 | 4.3 | 8.7 | 0.00 | 0.00 | 0.00 | 43 | 1020.3 |
| 20260503172522 | 54 | 321 | 0.9 | 5.2 | 0.00 | 0.00 | 0.00 | 50 | 1020.4 |
| 20260503172022 | 53 | 300 | 0.9 | 7.0 | 0.00 | 0.00 | 0.00 | 56 | 1020.4 |
| 20260503171525 | 53 | 215 | 1.7 | 7.0 | 0.00 | 0.00 | 0.00 | 44 | 1020.5 |
| 20260503171021 | 53 | 345 | 3.5 | 6.1 | 0.00 | 0.00 | 0.00 | 47 | 1020.4 |
| 20260503170522 | 53 | 286 | 1.7 | 6.1 | 0.00 | 0.00 | 0.00 | 49 | 1020.6 |
| 20260503150600 | 46 | 224 | 4.3 | 7.8 | 0.00 | 0.00 | 0.00 | 50 | 1022.2 |
| 20260503131035 | 41 | 326 | 7.0 | 13.9 | 0.00 | 0.00 | 0.00 | 56 | 1021.8 |
| 20260503130535 | 41 | 1 | 7.0 | 13.9 | 0.00 | 0.00 | 0.00 | 59 | 1021.8 |
| 20260503110503 | 37 | 334 | 1.7 | 5.2 | 0.00 | 0.00 | 0.00 | 66 | 1020.4 |
| 20260503081531 | 39 | 233 | 0.9 | 4.3 | 0.00 | 0.00 | 0.00 | 65 | 1017.9 |
| 20260503081033 | 39 | 256 | 2.6 | 5.2 | 0.00 | 0.00 | 0.00 | 65 | 1017.9 |
| 20260503080529 | 39 | 321 | 0.9 | 7.0 | 0.00 | 0.00 | 0.00 | 64 | 1017.7 |
| 20260503072524 | 40 | 278 | 3.5 | 7.0 | 0.00 | 0.00 | 0.00 | 61 | 1017.5 |
| 20260503072027 | 40 | 298 | 2.6 | 8.7 | 0.00 | 0.00 | 0.00 | 61 | 1017.4 |
| 20260503071522 | 40 | 332 | 4.3 | 8.7 | 0.00 | 0.00 | 0.00 | 61 | 1017.4 |
| 20260503071022 | 40 | 291 | 1.7 | 6.1 | 0.00 | 0.00 | 0.00 | 63 | 1017.3 |
| 20260503070525 | 40 | 317 | 2.6 | 5.2 | 0.00 | 0.00 | 0.00 | 64 | 1017.4 |
| 20260503055014 | 41 | 300 | 2.6 | 6.1 | 0.00 | 0.00 | 0.00 | 61 | 1017.5 |
| 20260503054518 | 42 | 319 | 1.7 | 6.1 | 0.00 | 0.00 | 0.00 | 61 | 1017.5 |
| 20260503054012 | 42 | 305 | 1.7 | 6.1 | 0.00 | 0.00 | 0.00 | 61 | 1017.5 |
| 20260503053512 | 42 | 1 | 1.7 | 6.1 | 0.00 | 0.00 | 0.00 | 61 | 1017.5 |
| 20260503053016 | 41 | 301 | 3.5 | 6.1 | 0.00 | 0.00 | 0.00 | 61 | 1017.5 |
| 20260503052511 | 41 | 300 | 3.5 | 6.1 | 0.00 | 0.00 | 0.00 | 61 | 1017.4 |
| 20260503052011 | 41 | 321 | 2.6 | 5.2 | 0.00 | 0.00 | 0.00 | 61 | 1017.4 |
| 20260503051510 | 41 | 331 | 1.7 | 5.2 | 0.00 | 0.00 | 0.00 | 61 | 1017.3 |
| 20260503051009 | 41 | 1 | 2.6 | 5.2 | 0.00 | 0.00 | 0.00 | 61 | 1017.3 |
| 20260503050509 | 41 | 341 | 2.6 | 4.3 | 0.00 | 0.00 | 0.00 | 61 | 1017.3 |
| 20260503050008 | 41 | 338 | 2.6 | 5.2 | 0.00 | 0.00 | 0.00 | 61 | 1017.3 |
| 20260503045513 | 42 | 11 | 1.7 | 6.1 | 0.00 | 0.00 | 0.00 | 60 | 1017.2 |
| 20260503045007 | 42 | 6 | 3.5 | 7.8 | 0.00 | 0.00 | 0.00 | 61 | 1017.2 |
| 20260503044507 | 42 | 344 | 3.5 | 7.8 | 0.00 | 0.00 | 0.00 | 60 | 1017.1 |
| 20260503044005 | 42 | 340 | 2.6 | 8.7 | 0.00 | 0.00 | 0.00 | 60 | 1017.2 |
| 20260503043504 | 42 | 329 | 3.5 | 8.7 | 0.00 | 0.00 | 0.00 | 60 | 1017.2 |
| 20260503043004 | 42 | 315 | 3.5 | 7.0 | 0.00 | 0.00 | 0.00 | 59 | 1017.1 |
| 20260503042502 | 42 | 319 | 1.7 | 5.2 | 0.00 | 0.00 | 0.00 | 59 | 1017.2 |
| 20260503042002 | 42 | 317 | 1.7 | 4.3 | 0.00 | 0.00 | 0.00 | 58 | 1017.1 |
| 20260503041502 | 42 | 329 | 2.6 | 5.2 | 0.00 | 0.00 | 0.00 | 58 | 1017.2 |
| 20260503041102 | 43 | 271 | 1.7 | 7.0 | 0.00 | 0.00 | 0.00 | 58 | 1017.2 |
| 20260503040559 | 43 | 325 | 3.5 | 7.0 | 0.00 | 0.00 | 0.00 | 58 | 1017.2 |
| 20260503040058 | 43 | 15 | 1.7 | 6.1 | 0.00 | 0.00 | 0.00 | 58 | 1017.2 |
| 20260503035602 | 43 | 313 | 2.6 | 7.0 | 0.00 | 0.00 | 0.00 | 57 | 1017.1 |
| 20260503035058 | 43 | 310 | 2.6 | 7.0 | 0.00 | 0.00 | 0.00 | 57 | 1017.2 |
| 20260503034557 | 43 | 308 | 2.6 | 5.2 | 0.00 | 0.00 | 0.00 | 57 | 1017.1 |
| 20260503034057 | 43 | 9 | 1.7 | 6.1 | 0.00 | 0.00 | 0.00 | 57 | 1017.2 |